Location: Newark
(42.8481°N, 0.4872°E)
Time: 07:37:14
(UTC+00:00)

Transit 2A Rocket - Pass Details

Date: 05 November 2020
Orbit: 588 x 914 km, 66.7° (Epoch: 29 November)

Event Time Altitude Azimuth Distance (km) Brightness Sun altitude
Rises 17:13:17 0° 321° (NW) 3,210 8.5 -5.7°
Reaches altitude 10° 17:15:57 10° 312° (NW) 2,223 7.9 -6.2°
Maximum altitude 17:20:24 33° 250° (WSW) 1,152 6.9 -7.0°
Drops below altitude 10° 17:24:30 10° 186° (S) 2,036 7.5 -7.7°
Sets 17:26:51 0° 177° (S) 2,900 8.2 -8.1°
